GFSSW_500_rhum_078.txt.gz
RH
98 95 96 95 98 98 91 88 85 79 70 54 33 16 17 30 33 29 29 24 15 4 4 4 3 3 3 4 3 2 1 1 1 2 2 3 4 5 5 5 5 6 5 6 6
96 96 96 97 97 96 91 88 89 80 68 51 29 16 23 36 41 33 12 5 8 5 3 4 4 3 3 3 3 3 1 1 1 1 1 1 2 2 3 5 5 6 6 6 6
96 96 96 94 94 97 96 92 90 84 69 52 32 16 18 35 38 35 18 6 3 4 3 3 3 4 3 3 3 3 2 1 1 2 2 2 2 2 2 2 4 6 6 7 7
96 96 96 96 95 96 98 94 93 88 77 62 37 18 15 20 30 31 31 23 11 4 2 2 2 3 4 3 3 3 2 2 1 1 1 1 1 2 2 2 2 3 4 6 6
94 96 97 96 94 95 96 97 95 95 92 79 64 36 17 16 24 26 27 28 21 13 6 2 2 2 2 3 3 3 3 2 2 2 2 2 1 1 2 2 2 2 2 3 3
95 96 96 96 94 95 96 91 88 92 95 92 90 73 34 17 19 25 23 20 14 16 16 11 7 4 2 2 3 3 3 3 2 2 2 2 2 2 2 2 2 2 2 2 2
94 96 97 89 93 94 90 82 84 87 92 81 92 94 60 18 20 20 17 13 13 16 13 12 9 4 4 4 3 2 3 3 3 3 3 2 3 2 2 2 2 2 2 2 2
96 95 91 80 71 70 67 70 65 71 83 78 65 49 64 22 18 21 16 17 18 12 12 13 9 5 4 3 2 2 3 3 3 3 3 3 3 2 2 2 2 2 2 2 3
94 89 73 75 69 71 64 67 63 70 81 62 54 41 14 50 15 12 10 10 14 12 11 10 7 5 5 4 2 2 2 2 2 2 2 2 2 2 2 2 2 3 4 5 6
83 72 72 70 67 79 73 66 72 62 82 82 84 50 35 22 10 8 8 10 24 15 9 10 12 18 8 6 4 4 3 2 2 2 2 2 2 2 2 4 6 8 10 11 12
84 69 68 79 63 67 93 82 87 89 89 88 95 89 37 17 8 7 8 11 10 9 11 22 35 38 10 12 5 3 2 2 2 2 3 3 4 5 8 12 15 17 16 16 17
86 68 68 77 71 75 97 93 83 69 90 82 70 81 87 40 14 12 11 11 11 12 19 41 61 61 9 7 7 3 3 2 3 4 8 11 13 14 14 14 15 15 14 15 16
85 76 61 67 86 89 78 75 80 56 37 43 18 12 26 52 49 65 28 16 16 43 56 55 63 19 8 9 4 3 4 5 9 12 14 14 14 14 14 14 14 15 16 18 24
85 78 70 80 86 83 85 65 65 60 50 34 23 14 19 33 42 45 26 29 50 56 52 52 48 8 6 6 7 6 13 14 14 14 14 14 15 16 19 24 27 29 30 34 43
86 80 75 77 87 79 82 76 53 58 34 30 19 24 24 22 29 25 45 51 51 54 52 22 10 12 11 9 11 14 15 14 15 14 14 17 27 33 36 38 39 40 40 42 41
89 80 75 77 84 78 83 68 68 48 48 33 28 32 33 38 45 51 56 63 43 24 17 13 12 15 17 17 17 15 16 15 15 14 19 32 35 36 37 38 36 28 22 19 24
93 82 78 82 86 80 66 75 61 57 42 47 43 39 39 42 48 48 53 57 38 24 21 17 19 22 21 20 19 17 16 15 15 20 32 34 34 35 25 17 15 13 12 14 12
98 87 81 82 82 83 76 56 51 49 49 41 46 49 49 52 55 51 49 56 33 25 34 24 22 22 24 21 18 17 16 15 16 26 32 35 30 23 10 8 8 8 9 8 10
99 92 86 89 83 87 80 61 43 39 46 47 38 35 37 43 59 54 35 32 40 27 25 24 24 23 22 20 18 18 16 17 23 30 32 33 26 13 5 6 6 6 7 11 13
99 100 100 96 82 73 64 59 57 48 43 54 52 42 38 54 68 53 48 35 35 31 29 33 34 25 21 20 18 16 16 19 28 32 36 32 28 11 7 10 10 8 8 14 10
97 99 95 93 93 79 54 61 76 68 55 52 51 54 57 59 66 66 38 39 38 37 34 31 29 23 21 20 18 16 17 23 29 38 38 33 28 12 14 20 20 18 16 13 10
98 97 98 97 89 72 68 81 82 77 68 63 63 65 67 70 68 67 66 33 37 39 37 33 28 24 22 19 17 15 22 28 36 41 37 36 18 12 23 23 22 19 16 11 10
95 99 96 95 77 64 88 100 98 83 78 72 71 71 70 70 68 69 58 37 39 46 39 32 31 26 22 20 18 18 26 35 42 41 40 34 12 26 27 24 19 14 10 11 11
91 73 96 82 72 71 79 92 95 97 79 64 64 75 76 74 65 60 56 38 43 52 51 50 41 27 24 21 20 21 29 45 44 43 44 27 17 28 27 21 15 12 12 12 11
96 98 99 87 78 96 99 93 94 95 88 68 59 65 69 60 53 53 49 39 39 40 40 51 66 38 24 22 19 17 28 46 47 46 44 21 22 30 22 15 12 11 10 10 11
97 82 100 97 100 99 93 87 87 93 95 71 58 56 60 52 43 43 43 39 36 37 39 41 43 47 35 29 23 20 39 54 54 53 49 19 19 30 18 13 12 12 13 14 15
93 97 99 97 96 96 94 100 100 98 95 83 61 62 72 62 46 41 41 41 40 42 43 46 52 57 60 60 38 25 50 61 63 66 56 18 30 34 21 11 9 10 12 14 16

GFSSW_500_rhum_081.txt.gz
RH
90 95 96 96 96 99 95 85 84 82 79 73 68 56 35 18 21 31 32 32 26 17 5 4 4 4 3 3 4 3 2 1 1 1 1 2 2 5 4 5 6 6 5 5 5
79 93 95 97 92 96 97 94 93 89 82 77 70 53 40 19 17 33 30 32 26 15 11 4 4 4 4 3 3 3 3 2 1 2 2 2 2 2 2 2 6 6 7 6 6
68 79 94 96 97 96 96 96 95 95 86 78 70 55 41 23 19 33 36 31 10 3 5 5 4 3 4 4 3 3 3 3 2 1 2 1 1 2 2 2 2 3 4 6 6
80 76 92 94 97 97 96 96 94 94 90 81 72 55 40 21 18 26 35 35 26 12 3 2 3 3 3 3 3 3 3 3 2 2 2 1 1 1 1 2 2 2 2 2 2
99 90 96 93 96 97 96 96 95 95 95 88 77 67 42 22 16 15 24 30 30 29 22 12 5 2 2 2 2 3 3 3 3 3 2 2 2 2 2 2 2 2 2 2 2
98 94 97 96 96 96 97 97 94 96 97 95 84 78 65 29 19 15 15 25 27 27 22 15 14 10 7 6 3 3 2 3 3 3 3 3 3 2 2 2 2 2 2 2 2
95 97 96 95 96 96 96 95 96 95 95 96 97 90 82 66 38 21 16 18 22 21 12 14 17 12 10 8 6 4 4 3 3 3 3 3 3 3 3 3 2 2 2 2 2
96 96 96 95 96 95 96 95 95 97 97 97 94 95 93 90 77 36 18 18 20 19 16 14 13 13 11 8 5 6 4 3 3 2 3 3 3 3 3 2 2 1 2 2 2
98 94 96 96 96 93 95 96 96 96 92 86 91 87 57 70 87 65 15 15 28 20 16 14 12 11 11 9 8 5 4 3 2 2 2 2 2 2 2 2 2 2 2 4 7
98 96 96 95 94 96 96 91 92 78 74 72 83 75 58 44 40 63 56 16 31 19 10 15 16 10 12 27 25 10 8 5 4 3 2 2 2 2 2 2 3 5 9 11 13
98 95 90 97 94 95 86 94 94 86 80 66 52 46 44 39 31 24 34 33 13 8 12 16 15 12 37 53 49 12 7 4 3 3 2 2 2 3 6 9 12 13 13 13 14
91 100 96 96 94 86 75 98 99 89 95 74 65 55 69 89 53 22 10 8 8 9 10 10 12 32 48 51 49 12 9 5 3 3 3 5 8 12 13 14 14 13 13 14 15
99 97 97 91 81 88 90 93 96 91 73 88 93 86 89 97 77 26 14 10 10 11 12 16 38 44 45 55 20 9 6 4 5 6 10 14 14 13 14 14 14 16 21 26 27
96 100 96 90 82 89 95 96 95 96 62 46 58 50 59 56 74 90 74 47 45 27 27 34 40 54 53 44 7 6 7 8 12 15 14 14 15 15 16 20 28 34 35 37 40
94 96 93 93 87 86 94 91 86 57 73 59 33 28 20 14 18 21 28 44 56 47 43 47 46 43 27 10 9 12 13 16 17 15 15 16 15 22 31 36 35 36 34 34 39
96 99 95 90 86 88 93 82 79 60 54 47 50 32 24 23 26 39 30 24 45 50 51 35 34 30 12 15 16 18 18 17 16 16 15 16 25 32 36 38 37 31 19 17 18
93 98 99 91 86 85 93 90 75 69 50 51 31 23 23 29 29 32 37 43 44 51 57 34 19 15 14 20 23 21 18 17 16 16 16 20 29 36 36 34 26 13 8 11 12
96 100 99 94 90 93 95 87 77 67 62 44 47 36 32 37 39 42 47 51 51 47 37 27 26 26 26 24 23 22 20 18 16 17 16 21 30 35 34 28 18 6 6 8 9
99 100 100 97 90 95 90 78 73 68 57 52 41 47 48 47 48 52 52 43 46 54 41 31 32 36 24 23 22 21 19 18 18 17 16 22 33 37 36 31 18 6 7 7 6
95 99 100 99 95 90 81 77 78 66 41 45 48 44 40 44 44 47 56 58 38 34 39 36 32 28 27 27 26 25 21 18 17 17 17 23 31 35 37 34 19 11 18 18 13
98 96 95 98 98 85 60 71 73 67 52 40 42 48 48 46 43 50 63 56 47 44 35 35 34 34 38 38 29 22 21 19 18 17 20 20 32 36 40 31 18 13 19 24 21
88 95 96 96 87 65 61 81 80 77 66 60 48 47 55 53 52 55 62 65 62 40 39 39 39 38 34 30 26 24 21 19 17 18 20 31 33 40 42 23 15 15 22 24 21
98 99 98 93 76 53 69 97 94 84 81 78 74 64 62 64 66 66 67 69 69 67 48 36 38 39 37 34 30 26 23 20 18 17 22 42 40 48 44 19 20 25 25 26 19
93 93 94 91 77 63 70 99 97 96 95 82 81 80 74 72 73 71 71 70 68 64 47 39 40 48 50 52 48 30 24 22 21 21 32 37 50 54 50 24 21 28 26 22 15
88 83 87 82 79 97 99 100 97 92 94 94 82 81 77 70 72 75 78 74 67 61 56 46 40 45 47 46 57 62 35 23 21 22 25 42 52 60 57 51 22 24 29 20 13
89 91 94 75 100 100 97 95 98 98 95 93 91 100 94 76 62 66 72 72 58 53 48 44 41 39 38 41 46 49 56 58 53 35 28 47 57 62 61 73 27 28 29 20 12
94 87 96 96 99 84 66 94 100 98 95 95 95 93 88 78 63 62 65 56 47 44 44 43 40 41 40 44 48 48 56 59 61 52 41 52 71 68 75 74 41 32 33 25 15

GFSSW_500_rhum_084.txt.gz
RH
26 64 87 87 98 96 96 94 58 51 52 61 67 64 64 58 41 22 22 28 31 24 9 4 4 4 4 3 3 3 3 2 1 1 1 1 1 2 2 3 5 5 5 5 5
24 30 50 98 96 96 91 96 92 86 65 65 67 68 67 60 52 21 22 29 28 31 24 17 5 4 4 4 4 3 3 3 3 1 1 2 2 2 2 2 2 4 5 5 5
38 34 34 78 95 96 95 97 96 94 80 78 71 74 70 61 52 26 18 30 32 30 13 5 8 4 4 4 4 4 3 3 3 3 2 1 1 1 1 2 2 2 2 2 3
41 52 45 49 89 94 96 97 97 97 94 93 83 76 72 63 42 36 18 27 36 32 16 6 3 3 4 4 3 3 3 3 3 3 3 2 2 1 1 2 2 2 2 2 2
90 79 62 72 72 89 97 97 97 97 95 96 89 81 73 59 51 40 20 22 33 36 33 26 20 9 5 3 2 2 2 2 3 3 3 3 2 2 2 2 2 2 2 2 2
96 91 90 74 72 73 87 95 98 97 96 96 91 82 71 57 48 38 25 15 19 28 29 29 26 16 13 13 11 7 4 4 3 2 3 3 3 3 3 3 3 2 2 2 2
93 98 96 98 78 80 98 96 98 98 94 96 91 81 67 61 54 41 23 15 13 17 27 26 22 16 16 17 14 10 7 6 6 4 3 3 2 3 3 3 3 3 2 2 2
99 95 98 100 95 92 97 97 96 96 94 95 95 95 91 85 74 60 41 22 16 14 18 20 16 14 14 14 14 9 8 15 14 8 4 3 2 2 3 3 2 2 1 1 2
99 100 95 96 97 97 100 96 96 96 95 96 96 95 93 93 90 82 72 45 24 18 18 18 18 18 15 17 15 12 18 17 10 7 4 3 2 2 2 2 2 2 2 3 6
98 97 96 97 96 96 97 97 96 96 94 93 94 95 89 67 71 86 93 89 56 20 17 26 29 16 15 31 19 21 40 40 16 10 6 3 2 2 2 2 2 3 7 11 12
97 97 82 94 97 96 97 95 96 96 96 96 95 93 74 71 61 42 47 73 81 24 13 24 32 11 21 29 25 50 44 50 29 5 4 3 2 2 3 3 8 11 12 13 13
96 97 97 91 94 93 95 96 95 96 96 92 91 70 69 67 47 43 35 30 33 54 60 24 9 11 15 17 42 45 46 31 8 9 5 3 4 5 8 11 11 13 14 15 20
98 88 98 91 88 95 96 94 96 97 97 92 84 76 56 52 44 44 42 26 18 12 10 8 9 11 13 41 45 39 48 18 7 4 4 7 10 13 12 12 14 15 20 30 35
81 96 77 99 96 94 95 97 96 97 93 85 81 85 75 59 57 63 93 67 14 10 9 10 11 19 41 40 50 52 43 8 7 7 12 14 14 15 14 15 18 28 33 35 37
96 97 100 95 99 100 91 97 96 90 93 82 56 51 72 75 72 90 96 34 23 38 39 29 32 42 45 46 43 26 17 11 14 17 18 19 15 14 15 21 31 34 34 33 29
97 96 97 97 100 99 97 95 98 86 96 77 68 44 42 40 36 38 64 76 73 72 65 59 50 46 41 42 41 24 14 17 20 20 17 17 16 15 23 33 35 35 31 24 10
98 99 99 96 98 97 98 94 90 90 86 61 75 84 32 22 15 17 20 28 29 34 45 53 54 50 25 16 14 15 21 21 20 21 18 16 15 19 30 36 35 33 29 22 7
96 97 100 100 94 100 96 87 84 85 95 65 79 42 71 71 41 38 36 36 46 52 52 52 47 49 24 18 19 22 24 23 20 19 17 17 17 22 32 38 37 35 32 26 7
98 93 96 97 97 100 93 83 81 98 80 74 51 93 37 36 44 43 48 48 47 48 46 42 38 33 29 33 32 28 25 22 20 19 18 18 18 20 32 38 38 36 34 29 12
99 98 98 99 100 100 86 66 87 96 92 75 57 61 81 45 42 45 47 48 46 44 46 48 45 35 34 35 29 26 26 27 26 24 19 17 18 20 30 41 40 38 36 24 16
97 97 94 88 93 85 57 70 90 96 94 75 67 51 43 48 47 45 47 50 54 56 45 36 40 41 38 32 32 36 35 28 25 22 20 18 18 22 34 37 36 37 37 24 13
99 86 95 72 94 66 70 92 96 93 97 78 43 41 48 45 42 42 46 51 55 58 48 48 45 36 36 36 37 36 31 28 26 23 21 20 20 24 33 36 39 41 42 23 16
91 99 89 94 82 69 72 99 96 95 83 77 54 46 44 47 53 54 50 46 50 63 65 65 56 44 39 40 40 38 36 34 32 29 28 24 22 29 30 38 42 45 51 56 34
96 96 92 77 75 67 80 99 98 100 95 81 75 71 71 60 56 59 60 57 60 65 69 69 66 60 49 41 41 45 49 54 56 41 27 25 26 29 33 38 43 54 57 60 62
87 86 74 71 69 89 85 98 97 94 92 86 78 79 84 84 77 70 71 69 68 69 69 68 66 61 53 45 42 44 48 46 56 57 59 55 44 50 35 35 55 57 61 67 68
81 70 80 65 81 98 100 99 95 97 93 88 83 90 81 79 84 80 76 72 73 74 74 73 64 57 53 49 44 42 41 40 46 53 53 56 55 59 56 49 46 50 60 67 65
78 73 86 83 90 96 93 96 100 98 94 94 98 92 78 91 87 80 73 71 63 64 67 68 59 49 48 46 43 40 39 41 47 50 50 54 56 54 56 47 50 58 60 65 59

GFSSW_500_rhum_087.txt.gz
RH
20 23 18 14 12 42 71 90 96 94 58 14 22 43 58 63 58 52 27 16 22 26 22 6 4 4 4 4 3 3 4 3 2 1 1 1 2 2 2 2 5 5 5 4 4
27 25 24 22 22 22 37 89 96 97 75 24 32 48 62 66 61 60 40 22 23 24 29 24 14 7 4 4 4 4 3 3 3 3 2 1 2 2 2 2 2 2 3 2 3
32 31 26 52 84 78 70 78 92 94 95 51 48 57 64 70 64 60 49 23 21 26 23 28 23 12 8 4 4 4 4 4 3 3 3 3 2 1 1 1 1 2 2 2 2
36 33 42 28 36 49 91 98 92 96 96 83 69 61 65 74 59 54 52 34 19 25 30 27 13 4 4 4 4 4 3 3 3 3 3 3 2 2 2 2 2 2 2 2 2
39 36 38 38 39 66 75 87 98 96 95 94 89 90 80 75 72 61 46 38 20 21 34 34 29 19 13 9 7 4 5 6 4 3 3 3 3 3 3 2 2 2 2 2 2
45 43 40 35 48 64 75 82 89 96 95 96 97 94 87 80 70 66 54 40 24 20 29 35 32 29 26 18 14 13 13 13 8 6 4 3 3 3 3 3 3 3 3 3 3
66 49 66 61 56 71 86 89 91 94 96 96 97 95 93 82 69 62 54 37 25 19 19 25 28 28 25 20 17 16 15 14 11 9 10 16 12 3 3 3 3 3 3 3 2
81 63 88 94 89 62 96 82 87 92 95 96 96 96 86 86 84 65 53 35 23 16 13 14 20 23 18 15 16 16 14 14 13 18 15 9 6 4 2 2 2 3 3 2 2
81 98 74 85 91 86 87 98 90 83 98 96 94 91 95 93 76 62 57 47 33 19 14 13 13 16 16 16 16 14 19 19 24 32 38 21 15 7 4 3 2 2 2 2 3
71 94 92 96 90 96 84 88 99 98 96 98 94 93 93 88 78 76 81 78 62 40 24 17 15 15 15 17 15 19 22 21 36 36 42 40 12 7 2 2 2 2 2 6 10
85 91 95 98 88 99 98 99 95 88 97 98 96 96 95 94 94 96 94 93 90 92 62 30 21 16 22 38 38 17 23 40 46 43 42 26 8 6 3 2 2 4 9 11 12
83 89 97 96 93 95 96 97 97 98 98 96 95 94 94 95 96 94 76 75 83 92 93 65 29 18 19 20 14 18 29 46 44 40 31 10 12 8 3 5 8 11 11 14 16
97 78 97 88 100 97 96 96 96 97 96 95 96 95 96 94 89 78 86 55 41 37 38 59 63 44 28 12 11 16 46 44 44 44 19 6 4 4 6 12 13 13 14 18 32
88 75 93 99 95 98 97 94 96 96 95 96 95 96 91 89 75 79 73 48 40 23 18 18 17 13 9 10 15 39 39 46 44 42 10 11 15 14 13 13 15 15 20 33 35
85 80 92 94 100 100 84 92 96 94 92 93 95 96 96 83 71 56 43 50 69 44 44 25 11 10 12 24 39 39 42 40 23 12 10 15 17 15 15 14 15 20 31 33 33
98 92 85 96 94 96 95 94 89 94 93 92 96 87 80 77 84 80 63 63 72 92 32 20 25 28 38 45 46 45 42 38 19 14 17 18 18 15 14 15 17 29 34 34 32
96 98 100 97 97 97 97 92 82 77 89 92 95 96 61 41 52 58 65 74 96 58 44 72 66 64 56 44 33 24 20 20 22 23 22 19 17 16 16 19 22 28 33 34 34
98 97 100 98 97 98 96 85 75 68 89 92 96 91 87 35 32 20 45 29 69 75 48 42 47 48 51 50 33 17 17 24 26 25 20 19 16 16 18 21 25 27 32 34 33
95 96 98 97 93 98 98 73 62 82 93 92 95 80 94 88 38 23 18 34 37 43 54 50 52 51 47 40 32 26 28 30 28 24 21 20 20 18 18 21 26 29 32 34 35
97 99 99 100 98 98 96 79 71 91 95 96 96 76 94 79 89 91 72 77 78 57 56 51 46 41 36 32 30 33 34 31 27 28 31 30 26 20 19 21 24 29 35 35 36
99 96 96 96 96 95 71 69 85 100 98 97 94 90 55 86 61 90 76 57 50 49 46 41 43 46 45 39 38 37 32 32 35 37 31 26 24 21 21 22 23 24 28 36 40
98 97 98 96 88 85 85 80 92 100 99 97 96 76 50 67 86 51 54 56 50 51 55 52 43 40 40 39 37 35 35 36 37 35 36 34 36 30 25 23 22 24 30 36 44
100 95 98 99 81 69 81 76 90 93 96 95 95 94 95 66 57 81 79 58 57 64 65 56 50 47 45 42 40 39 39 39 39 38 38 43 41 39 32 28 26 24 24 27 40
96 99 97 93 98 83 79 82 97 98 100 89 95 96 52 49 61 55 56 57 58 54 55 58 58 61 61 62 61 53 43 40 41 45 50 48 50 52 54 55 53 53 44 36 38
97 87 82 69 76 70 72 81 98 95 86 96 85 86 67 48 49 49 55 59 59 57 58 58 65 68 68 66 63 59 56 46 43 45 45 44 44 54 53 50 51 53 54 56 51
89 76 68 73 95 86 95 88 93 99 91 92 87 85 85 84 78 82 74 65 66 70 70 70 69 70 68 65 62 56 52 52 49 42 39 39 40 50 49 53 60 60 54 51 53
77 76 88 73 80 82 77 95 100 100 96 96 100 94 84 92 88 84 83 82 77 75 72 72 72 72 68 65 62 46 46 45 44 43 42 40 44 45 47 53 58 63 58 56 52

GFSSW_500_rhum_093.txt.gz
RH
20 17 20 20 17 15 12 21 49 58 71 68 76 77 15 10 10 14 42 53 30 13 12 20 15 8 4 4 4 3 3 3 3 3 3 2 1 1 1 2 2 2 2 2 2
18 20 22 20 16 17 15 12 20 34 48 48 58 82 67 24 11 12 28 57 49 27 10 14 18 18 7 4 5 4 4 4 4 3 3 3 3 3 2 1 1 1 1 1 2
23 17 21 21 20 15 15 16 13 13 16 37 55 83 91 72 34 16 19 51 57 45 23 15 21 24 24 18 14 10 10 7 5 4 4 3 3 3 3 3 2 2 2 2 2
50 39 32 23 18 13 14 16 16 14 14 19 56 69 91 88 71 43 20 47 61 56 43 24 23 24 27 30 18 10 10 6 5 5 4 7 7 3 3 3 3 3 3 2 2
66 57 45 36 30 19 13 14 18 19 16 17 38 74 76 91 88 71 41 34 58 64 52 34 25 22 23 28 16 6 6 6 10 9 12 17 18 9 6 5 6 4 3 3 3
79 73 60 50 41 30 23 21 21 19 25 36 34 39 46 87 93 86 59 40 50 57 59 46 33 19 21 27 25 20 24 18 18 20 18 20 19 15 13 20 15 12 6 3 3
81 84 75 70 59 46 32 22 24 30 29 87 66 41 40 74 93 97 96 54 59 68 56 46 58 29 21 26 30 31 28 25 25 23 22 24 21 20 23 31 22 8 6 4 3
85 88 86 85 78 60 43 32 28 26 25 38 34 37 79 79 98 96 90 96 86 72 64 60 42 75 41 23 30 29 28 26 25 24 23 24 32 34 36 38 38 20 12 4 3
84 83 87 89 89 73 55 43 35 32 28 26 23 30 85 86 100 97 96 97 85 65 62 62 48 31 27 22 23 24 26 26 25 24 24 32 38 40 38 36 37 18 10 3 2
98 92 93 95 95 88 72 58 43 34 39 38 31 41 75 98 96 97 99 96 93 79 91 53 34 32 21 20 19 19 18 19 20 21 26 32 37 40 38 34 36 9 5 3 2
89 85 88 97 98 90 83 68 55 40 44 85 62 62 54 88 100 95 97 93 96 95 94 94 58 24 28 33 14 12 12 15 18 28 54 43 36 39 37 36 34 12 6 2 2
97 83 88 97 100 93 81 74 66 53 43 76 80 59 51 88 98 95 95 90 96 98 95 85 71 78 85 84 31 14 15 14 20 40 44 29 33 36 34 39 20 5 4 5 9
98 88 80 100 98 88 87 76 99 76 49 48 71 79 77 79 98 95 96 92 95 95 84 63 77 77 40 27 47 80 56 21 42 26 22 23 30 32 34 33 8 11 9 10 12
96 93 75 98 96 94 88 82 98 95 83 74 56 63 67 71 73 88 98 97 89 95 90 84 84 76 54 92 68 40 46 27 14 28 18 28 29 33 35 19 15 16 14 13 14
98 95 78 100 100 87 100 96 100 97 92 82 85 82 73 62 94 82 100 93 96 100 91 78 95 94 94 97 91 54 28 48 46 16 23 31 32 32 25 17 18 18 16 15 14
98 96 87 70 82 100 93 94 100 97 92 82 77 75 72 83 90 97 95 97 100 98 94 100 92 94 95 94 82 61 56 23 22 31 34 35 36 36 21 20 20 18 15 15 16
97 98 81 88 100 98 92 94 100 91 88 89 72 63 68 88 94 97 100 98 100 93 91 99 98 92 88 72 38 15 19 40 46 40 38 37 32 27 22 20 18 16 15 16 19
98 98 97 97 98 97 86 89 87 75 98 95 79 68 83 93 87 98 97 95 94 97 96 95 95 84 49 62 41 30 39 46 50 39 26 19 21 24 23 21 19 18 17 17 18
97 99 93 97 97 97 78 70 60 87 97 96 82 80 82 84 95 96 95 99 97 95 94 90 93 96 97 82 58 53 70 58 63 38 26 22 25 26 25 26 28 28 24 22 23
97 89 96 100 98 94 76 64 88 84 96 95 85 66 72 84 80 89 94 98 97 97 98 96 89 86 83 55 75 90 87 73 48 34 30 32 32 30 35 34 34 33 26 23 22
97 92 100 98 95 83 52 86 93 92 95 96 88 71 73 82 86 94 91 96 96 92 96 98 96 96 97 98 88 93 89 52 36 37 37 34 35 37 34 35 38 40 38 36 32
84 99 100 92 82 65 54 71 92 96 97 96 90 92 87 90 90 95 95 90 76 76 88 57 72 93 94 96 94 68 37 35 37 38 37 37 37 36 38 39 41 44 46 50 51
96 100 96 94 75 60 62 69 96 90 90 100 100 91 85 97 95 92 96 97 85 84 92 96 86 94 90 79 52 45 63 90 77 58 42 38 39 41 42 43 43 46 43 45 45
100 98 87 84 87 75 72 74 94 94 95 99 99 95 81 89 96 93 98 96 98 97 96 96 94 78 73 74 79 93 96 92 67 51 46 51 49 47 47 47 45 44 44 44 44
97 91 84 61 70 73 79 85 98 94 92 98 95 97 88 84 93 90 96 93 94 97 95 91 91 94 88 95 96 97 96 83 78 70 72 61 59 55 54 51 46 44 40 38 39
82 83 90 92 100 88 79 78 89 97 97 93 98 100 94 74 81 98 87 90 94 96 97 100 99 93 94 94 94 89 74 70 86 87 70 66 61 54 51 46 44 42 40 40 42
100 97 100 100 100 94 86 92 93 91 100 98 100 96 91 87 78 94 93 86 93 97 98 96 97 97 93 94 82 61 72 93 86 76 66 59 56 49 46 45 44 43 46 52 58

GFSSW_500_rhum_099.txt.gz
RH
31 31 21 10 11 12 20 21 21 14 15 58 66 69 54 60 66 25 9 9 22 45 41 15 20 17 15 8 4 3 4 3 3 4 3 4 4 4 3 2 2 2 1 1 1
30 16 22 23 20 16 12 15 17 17 14 11 43 58 70 62 66 70 33 10 10 33 51 42 17 19 20 18 11 7 6 5 5 5 5 5 5 6 8 5 4 3 3 2 2
20 20 16 16 19 23 17 14 14 13 15 13 12 42 63 76 75 63 79 40 10 15 45 54 41 21 20 23 19 14 16 12 9 10 10 8 9 10 14 20 14 7 4 4 4
20 19 25 18 15 15 18 19 16 17 16 13 14 14 51 65 82 80 76 85 21 11 21 53 53 38 20 19 18 19 23 21 16 12 14 8 8 12 17 24 22 13 13 22 23
22 18 18 22 33 23 17 16 21 18 19 16 14 13 21 54 66 82 82 84 82 20 12 30 53 57 43 26 18 18 24 28 25 11 9 11 19 16 30 27 25 19 25 30 30
32 25 22 28 39 50 28 21 17 18 18 18 16 15 14 22 41 59 78 78 88 83 49 20 34 52 60 48 32 24 25 25 27 19 15 23 26 27 38 36 31 28 32 38 39
38 38 36 35 42 60 53 39 30 18 16 17 17 15 16 16 24 34 53 78 89 91 91 73 41 42 41 57 47 32 26 23 26 28 24 28 26 30 33 36 36 40 44 40 38
48 41 42 41 44 62 70 61 46 31 21 15 15 14 19 15 14 19 28 73 90 98 98 100 73 44 39 43 57 45 36 29 27 28 29 30 24 28 30 33 40 46 45 42 38
55 51 52 57 51 59 69 68 52 40 31 24 20 17 18 13 20 23 19 40 68 81 96 99 93 86 67 55 47 48 43 47 52 41 28 29 26 25 28 30 38 46 48 41 36
72 60 63 62 55 51 60 69 63 44 41 32 21 22 24 19 20 20 36 38 36 55 77 91 96 91 79 67 52 51 50 46 52 66 74 72 32 26 25 27 35 47 49 39 37
68 93 66 74 80 84 72 69 63 48 47 64 36 33 32 27 25 22 30 50 46 42 54 68 77 94 98 88 65 57 70 46 35 40 36 26 23 21 23 23 38 49 45 37 32
29 85 100 91 100 100 86 50 80 85 96 79 47 52 43 32 29 29 31 29 32 43 77 73 60 93 90 93 92 92 88 50 40 47 46 28 22 15 52 28 38 45 37 32 31
28 66 97 100 97 90 80 92 98 100 96 80 74 63 57 42 37 34 30 33 36 49 74 86 91 92 82 90 90 96 80 33 54 62 47 36 52 54 35 22 49 36 31 30 35
30 57 77 94 92 91 79 100 96 100 96 69 67 71 56 56 41 39 30 37 50 65 81 83 92 93 87 86 86 87 78 91 89 80 69 64 57 47 33 60 39 33 31 32 33
24 63 90 96 64 79 100 98 100 99 91 80 63 54 56 52 48 49 43 41 46 59 57 56 87 94 88 96 94 94 94 90 86 85 80 55 46 55 64 66 47 34 30 32 23
19 45 87 87 52 100 99 94 99 100 76 68 54 51 56 55 57 56 44 51 50 67 56 56 77 79 77 82 90 87 90 93 86 85 77 47 53 59 54 63 48 31 36 36 20
21 100 99 76 88 99 95 99 100 91 65 59 54 57 64 66 68 66 52 45 40 44 47 53 59 88 87 84 82 86 65 54 62 78 78 78 76 73 57 43 37 39 40 31 21
20 100 94 96 73 97 92 99 89 50 54 48 59 62 58 68 69 81 73 62 58 57 68 78 85 88 82 93 96 96 94 88 84 83 82 85 79 70 46 38 37 58 62 24 21
27 100 100 94 99 88 100 94 58 46 63 64 70 67 62 55 62 69 66 57 52 68 86 94 86 93 93 98 97 88 86 100 88 83 84 69 51 43 47 67 69 37 25 23 21
34 100 98 96 94 98 99 48 64 60 70 73 71 69 70 79 81 75 64 57 61 71 93 97 98 99 100 97 94 87 96 89 76 81 88 70 49 56 78 83 45 33 30 30 30
96 100 90 97 99 99 46 20 70 65 62 78 78 76 72 72 77 62 57 71 73 82 97 97 96 95 100 94 97 94 90 75 73 63 57 72 78 95 89 68 36 33 35 34 33
100 99 97 97 98 96 46 45 65 62 72 71 76 82 79 75 69 68 67 76 77 84 72 93 96 95 100 100 98 97 98 86 71 69 73 75 84 94 74 54 41 37 37 38 43
100 99 62 92 96 89 70 52 46 74 73 64 85 84 78 72 70 71 67 60 59 72 74 92 73 88 98 93 87 89 96 96 98 97 87 91 81 86 72 59 63 58 45 43 42
100 100 100 100 96 88 21 30 37 71 80 64 90 88 79 81 76 84 77 70 69 79 85 88 81 94 99 100 98 96 98 95 93 86 91 88 64 65 75 68 60 60 62 62 66
100 99 90 91 92 64 51 75 68 78 73 69 89 84 88 82 86 80 85 79 78 76 84 83 77 88 98 97 97 97 98 99 96 98 84 71 76 93 93 82 72 66 66 62 60
100 98 87 90 100 70 34 39 70 91 81 64 70 80 88 89 85 94 96 89 94 88 95 92 84 87 92 97 97 96 91 96 90 80 77 86 92 96 92 78 71 65 68 63 57
100 85 96 74 96 95 58 67 64 77 88 96 94 84 98 99 99 100 90 88 90 87 94 94 100 96 94 98 96 78 88 94 94 91 93 88 95 94 86 86 80 74 61 56 53

GFSSW_500_rhum_102.txt.gz
RH
52 35 33 30 28 22 23 30 36 23 80 65 55 80 77 55 61 71 43 9 10 23 43 27 17 21 16 17 12 5 4 3 3 4 6 8 7 5 4 4 4 3 2 2 1
33 50 49 31 26 17 17 25 28 29 25 50 51 54 73 73 65 67 73 38 9 11 33 47 28 21 23 20 18 16 8 5 5 6 6 7 8 11 13 7 5 5 5 5 4
48 31 24 43 34 31 18 14 15 12 17 24 23 15 37 69 68 68 74 74 41 10 14 43 49 32 21 21 20 16 20 13 10 10 11 11 10 12 12 22 25 18 11 7 9
29 46 30 20 35 25 22 26 20 18 13 16 16 19 12 38 56 69 80 77 82 47 11 21 50 50 36 18 16 18 21 22 18 20 16 14 13 15 18 32 32 31 26 23 27
23 31 41 35 29 21 17 16 19 22 18 15 16 13 17 13 26 55 72 86 84 85 58 12 31 53 52 37 16 12 21 27 21 25 27 14 10 11 17 32 36 39 34 28 31
27 28 29 34 34 28 23 20 15 16 17 18 17 18 16 18 12 25 59 74 88 91 96 30 14 35 53 52 42 26 25 27 24 25 29 28 16 12 19 20 31 39 38 35 43
34 30 26 29 38 38 30 26 26 24 16 14 18 19 19 20 16 14 37 61 76 90 94 92 34 15 29 44 53 55 43 44 32 26 28 28 27 24 26 24 29 36 37 42 47
46 42 46 50 48 48 46 47 35 37 29 15 14 18 24 18 16 18 20 35 48 74 94 96 94 69 29 29 35 39 51 52 47 43 35 33 25 31 30 28 26 30 34 41 47
22 46 46 53 73 59 55 54 58 48 41 30 18 15 23 20 20 18 18 20 31 41 65 90 94 94 86 66 44 42 43 45 50 44 42 44 31 31 31 30 27 27 30 36 43
32 35 59 64 74 75 66 59 57 49 43 43 32 26 25 23 20 18 20 17 17 28 41 67 83 88 92 96 84 58 45 48 50 44 46 51 58 49 48 60 37 24 26 31 38
34 33 65 93 92 84 72 69 56 38 37 54 57 49 45 32 31 22 15 16 18 16 20 36 57 72 93 95 92 87 84 64 48 43 55 49 51 58 61 51 25 20 21 34 39
13 36 59 98 98 100 82 47 67 78 70 74 70 60 49 41 33 32 23 18 16 19 33 29 22 73 86 75 75 93 89 75 75 80 60 67 62 42 38 30 23 18 34 41 45
10 28 63 98 98 92 72 76 100 82 73 67 79 72 60 41 43 38 28 26 21 22 29 37 53 80 78 70 72 77 87 99 90 89 78 78 75 41 38 30 19 27 52 34 47
14 11 41 93 99 73 59 100 100 98 100 67 54 59 56 56 37 51 38 32 27 25 33 26 34 51 70 67 76 71 79 87 90 92 81 72 54 45 45 39 69 78 40 36 52
21 8 30 80 92 95 64 100 98 99 99 75 65 59 62 48 52 56 52 41 32 36 33 30 42 51 67 93 98 92 98 88 84 81 71 72 73 65 85 93 83 63 58 57 45
25 12 14 48 70 90 100 99 99 100 81 63 52 42 58 49 57 68 58 51 46 43 36 40 48 54 62 88 96 92 88 89 89 87 70 76 80 63 76 76 67 68 48 59 62
25 14 8 42 95 98 100 97 100 94 65 58 43 46 60 65 63 59 53 48 44 43 35 43 37 40 45 54 67 76 81 80 78 79 71 72 73 69 71 70 73 75 69 62 42
23 14 9 29 83 98 99 96 98 63 66 52 41 54 62 70 54 56 54 46 44 44 47 55 55 55 65 72 96 97 95 87 79 73 68 65 61 66 73 76 81 71 51 44 39
18 11 9 26 67 100 88 98 69 40 65 57 64 68 62 60 49 56 52 54 50 47 53 56 49 60 68 92 96 89 90 94 88 79 70 68 65 74 77 65 52 54 40 45 66
12 10 10 41 78 99 100 95 51 52 65 64 61 65 58 58 57 58 62 59 65 72 68 66 64 75 87 92 93 88 84 78 78 79 76 71 70 75 66 47 46 48 62 69 47
7 13 18 45 100 99 94 74 69 93 93 84 77 65 69 61 64 63 64 59 80 78 74 69 72 74 82 77 95 97 92 99 99 96 89 79 70 74 82 78 64 86 92 57 55
5 13 64 98 99 98 86 84 89 95 97 91 93 87 82 68 64 68 60 82 72 67 61 75 76 69 83 90 97 97 98 99 90 81 78 76 67 69 65 80 97 89 72 40 39
4 10 99 100 98 87 90 93 99 95 85 82 97 85 82 71 68 70 82 86 70 69 74 81 60 64 71 78 87 84 88 96 98 99 87 80 66 78 98 95 97 89 81 81 72
5 6 100 100 97 97 96 95 97 94 79 86 94 89 85 76 70 71 81 72 76 68 64 67 62 60 61 92 94 92 100 100 98 88 85 73 81 96 98 95 67 83 54 58 91
5 5 100 98 99 94 96 100 93 92 72 73 90 82 88 69 80 78 80 84 76 71 61 58 61 71 82 88 88 88 91 100 92 91 87 88 91 99 96 94 81 70 68 68 88
7 25 100 98 92 94 100 99 97 97 70 62 66 82 87 70 79 81 88 87 84 78 72 66 69 71 72 90 90 84 93 94 95 98 88 100 90 100 94 90 90 91 89 82 94
10 100 98 90 91 100 85 85 81 87 70 75 91 84 78 76 95 95 93 94 98 89 73 76 78 76 78 85 89 69 87 91 90 97 96 91 94 96 91 90 89 80 82 88 78

GFSSW_500_rhum_105.txt.gz
RH
52 61 69 25 17 22 27 25 21 45 36 55 87 84 71 65 63 57 53 25 9 10 29 44 21 25 24 16 13 5 4 3 4 7 6 6 5 5 7 10 7 4 3 2 2
35 61 62 71 42 34 28 25 24 22 36 34 53 85 76 74 78 72 53 58 29 9 12 35 41 20 25 25 23 21 8 4 4 6 8 10 9 10 10 8 13 22 19 10 6
24 45 60 52 72 53 33 34 27 21 25 34 30 55 73 62 76 77 75 60 59 35 10 14 39 42 24 24 23 22 24 15 8 8 10 13 14 11 13 17 21 28 25 21 19
29 34 53 51 40 72 69 39 27 19 18 23 29 27 61 75 44 61 70 72 66 65 44 10 17 42 46 25 20 24 23 23 19 19 19 18 17 15 12 20 21 28 34 37 31
37 32 58 64 45 43 45 45 42 30 21 15 15 16 18 40 39 36 49 66 74 70 74 47 10 22 48 46 29 16 20 26 24 23 27 29 22 15 11 27 23 32 39 39 37
42 42 39 68 60 48 48 31 35 36 24 26 22 16 11 17 27 20 18 43 65 77 78 92 44 11 22 49 48 30 26 28 24 22 28 28 29 26 14 21 26 30 38 39 36
20 45 46 54 82 65 37 44 40 29 21 15 20 22 17 18 12 14 16 15 40 62 80 86 93 52 17 24 47 52 39 33 26 27 31 34 30 27 29 21 25 29 30 35 36
36 22 55 53 84 99 86 36 37 41 26 19 16 13 19 18 18 17 16 16 14 38 63 77 90 95 54 20 27 43 50 48 42 44 47 47 30 35 32 30 27 28 28 28 31
18 36 30 64 70 100 99 98 42 34 33 21 19 15 17 18 21 19 18 18 18 18 43 64 74 88 91 72 27 24 32 40 43 46 49 49 43 38 38 36 32 32 31 30 28
18 18 36 38 76 87 98 100 99 48 34 28 20 24 25 17 18 23 23 19 18 18 22 45 59 74 85 92 94 80 48 35 39 39 40 43 47 48 45 52 56 47 47 57 42
27 17 20 37 50 90 94 98 98 69 34 40 44 49 46 34 23 21 21 21 19 17 16 22 38 50 73 100 92 83 86 90 60 46 46 47 48 47 45 49 57 62 64 59 37
38 20 13 32 36 100 94 85 93 100 88 74 57 59 67 54 35 28 21 18 16 16 20 18 15 42 46 61 72 84 82 88 96 91 80 68 60 54 51 53 62 68 39 39 26
22 35 14 11 46 94 87 77 100 100 100 88 76 79 69 60 52 39 31 22 18 17 16 15 21 43 39 37 41 54 71 78 73 77 68 71 71 72 68 61 61 68 40 33 28
24 31 25 10 26 64 73 100 90 98 100 76 61 60 61 50 45 47 37 34 25 22 24 18 21 24 39 42 40 26 64 60 60 57 64 65 52 67 79 79 83 85 31 41 68
22 31 34 13 10 43 40 98 99 100 100 73 62 60 65 57 51 56 56 38 26 31 26 20 25 24 30 49 47 46 60 60 50 47 40 47 53 45 68 72 69 65 65 76 76
19 28 32 19 11 30 100 100 98 100 92 72 61 54 55 40 46 66 52 40 39 36 28 27 35 36 37 46 35 32 39 56 58 62 32 54 63 41 72 69 75 80 84 85 75
15 23 32 22 12 22 56 99 98 98 78 54 43 44 49 53 53 62 60 46 40 38 27 33 31 30 38 48 46 43 47 54 56 64 52 64 62 59 70 70 72 71 73 80 78
6 17 26 28 11 16 98 98 98 86 72 51 41 55 59 66 61 67 66 55 48 46 49 51 47 41 36 44 49 62 71 72 63 54 49 56 51 56 64 67 68 68 69 75 83
4 11 22 22 15 57 100 100 97 75 91 73 72 72 60 67 55 57 60 53 54 52 53 55 50 46 50 68 80 78 73 83 68 55 43 39 42 54 68 73 71 69 71 72 72
8 6 17 11 9 74 100 91 77 89 100 67 72 67 67 68 63 62 64 49 45 46 54 55 52 54 65 68 66 68 76 74 74 64 55 48 45 51 76 82 80 66 52 50 53
32 5 8 7 72 100 95 56 64 98 100 84 74 62 71 75 76 78 75 59 57 66 80 73 66 62 66 56 70 69 62 70 81 72 67 54 51 71 81 81 79 63 61 65 62
75 8 6 5 59 100 92 49 73 100 89 64 74 90 85 88 85 92 71 75 78 79 77 92 84 68 63 68 77 77 79 85 75 66 71 68 49 79 74 77 69 82 86 90 94
81 40 18 10 45 94 80 75 60 100 95 92 84 83 90 93 96 96 82 82 68 67 67 74 65 62 60 67 68 74 86 100 99 95 77 79 63 91 85 79 82 82 92 95 77
85 75 35 17 57 40 100 70 73 62 81 99 99 99 100 99 88 97 86 76 83 79 87 80 65 61 60 70 85 74 91 100 99 84 88 73 78 90 97 92 87 91 96 98 88
95 100 77 13 30 96 70 72 92 85 64 99 98 96 95 95 91 96 87 76 86 88 83 70 57 57 65 78 72 68 72 74 65 73 75 75 73 86 98 92 93 94 92 78 78
100 100 100 15 47 97 100 100 89 100 81 97 85 95 100 87 76 90 85 76 74 80 73 63 61 69 75 75 72 66 71 76 74 70 66 79 71 99 88 84 88 95 95 82 82
100 100 98 27 94 100 100 72 44 94 78 100 98 94 97 90 100 100 99 99 99 90 93 82 80 78 66 71 68 50 68 76 74 78 87 84 98 95 87 96 89 85 80 84 89